Location: ??????
(55.7522°N, 37.6156°E)
Time: 18:28:55
(UTC+00:00)

USA 234 - Pass Details

Date: 14 June 2025
Orbit: 1097 x 1111 km, 123.0° (Epoch: 19 June)

Event Time Altitude Azimuth Distance (km) Brightness Sun altitude
Rises 21:04:23 0° 64° (ENE) 3,921 6.4 -10.8°
Reaches altitude 10° 21:07:29 10° 78° (ENE) 2,961 5.6 -10.8°
Maximum altitude 21:12:31 23° 129° (SE) 2,142 4.4 -10.9°
Enters shadow 21:16:31 14° 173° (S) 2,691 4.6 -10.9°
